Location: Krasnoyarskiy Pitomnik
(51.1333°N, 71.6167°E)
Time: 10:21:26
(UTC+00:00)

Landsat 5 - Pass Details

Date: 22 October 2021
Orbit: 528 x 652 km, 98.2° (Epoch: 06 December)

Event Time Altitude Azimuth Distance (km) Brightness Sun altitude
Rises 13:44:46 0° 13° (NNE) 2,905 6.9 -16.1°
Reaches altitude 10° 13:46:57 10° 12° (NNE) 2,011 6.1 -16.4°
Maximum altitude 13:51:20 77° 287° (WNW) 662 3.8 -17.1°
Drops below altitude 10° 13:55:48 10° 202° (SSW) 2,046 6.4 -17.8°
Sets 13:58:01 0° 201° (SSW) 2,959 7.3 -18.1°
